"TOA5","AWS1","CR1000","7964","CR1000.Std.14","CPU:AWS1_114.CR1","64363","TBL110"
"TIMESTAMP","RECORD","Wind_spd_WVc(1)","Wind_spd_WVc(2)","Air_Temp_Avg","Humidity_Avg","SW_upper_Wm2_Avg","Rain_Tot","Press_Avg","Issui_Tot","Depth_cm","SR50A_Raw","Quality","Ground_Temp_Avg(1)","Ground_Temp_Avg(2)","SW_lower_Wm2_Avg","Albedo_Avg","SWC_per(1)","SWC_per(2)","Period(1)","Period(2)"
"TS","RN","","","","","","","","","","","","","","","","","","",""
"","","WVc","WVc","Avg","Avg","Avg","Tot","Avg","Tot","Smp","Smp","Smp","Avg","Avg","Avg","Avg","Smp","Smp","Smp","Smp"
"2017-08-12 00:00:00",300877,0,0,19.54,100,0,0,861.4957,0,9.83,2.977,320,22.32,21.61,0.3978916,0,48.54,55.95,32.93,34.74
"2017-08-12 00:10:00",300878,0,0,19.56,100,0,0,861.439,0,9.37,2.981,281,22.31,21.62,0.2387333,0,48.48,55.89,32.92,34.72
"2017-08-12 00:20:00",300879,0,0,19.64,100,0,0,861.5038,0,9.59,2.979,283,22.29,21.64,0.3069366,0,48.54,55.89,32.93,34.72
"2017-08-12 00:30:00",300880,0,0,19.7,100,0,0,861.4889,0,9.69,2.978,269,22.22,21.63,0.3031384,0,48.54,55.89,32.93,34.72
"2017-08-12 00:40:00",300881,0,0,19.62,100,0,0,861.5037,0,9.48,2.98,256,22.22,21.65,0.07957517,0,48.54,55.95,32.93,34.74
"2017-08-12 00:50:00",300882,0.012,70.88,19.62,100,0,0,861.5037,0,9.87,2.976,414,22.22,21.66,0.1326269,0,48.48,55.89,32.92,34.72
"2017-08-12 01:00:00",300883,0.019,55.69,19.62,100,0,0,861.5037,0,6.868,3.005,257,22.22,21.65,0.227358,0,48.54,55.89,32.93,34.72
"2017-08-12 01:10:00",300884,0.165,25.59,19.57,100,0,0,861.5037,0,6.211,3.012,253,22.23,21.64,0.2273594,0,48.54,55.83,32.93,34.71
"2017-08-12 01:20:00",300885,0.062,58.75,19.49,100,0,0,861.5037,0,4.887,3.025,235,22.22,21.63,0.2084144,0,48.54,55.83,32.93,34.71
"2017-08-12 01:30:00",300886,0.026,8.08,19.47,100,0,0,861.6215,0,4.579,3.028,230,22.16,21.61,0.246306,0,48.54,55.83,32.93,34.71
"2017-08-12 01:40:00",300887,0.027,8.97,19.37,100,0,0,861.5141,0,4.613,3.029,224,22.14,21.59,0.2159939,0,48.54,55.83,32.93,34.71
"2017-08-12 01:50:00",300888,0.042,20.79,19.28,100,0,0,861.5037,0,4.534,3.03,235,22.13,21.58,0.303146,0,48.54,55.89,32.93,34.72
"2017-08-12 02:00:00",300889,0,0,19.23,100,0,0,861.4825,0,4.555,3.03,238,22.14,21.56,0.2500973,0,48.54,55.83,32.93,34.71
"2017-08-12 02:10:00",300890,0,0,19.16,100,0,0,861.4405,0,4.682,3.029,265,22.14,21.55,0.2652584,0,48.54,55.89,32.93,34.72
"2017-08-12 02:20:00",300891,0.058,139.7,19.07,100,0,0,861.4405,0,4.422,3.032,245,22.15,21.54,0.2425185,0,48.54,55.89,32.93,34.72
"2017-08-12 02:30:00",300892,0.02,203.2,19.02,100,0,0,861.5015,0,5.085,3.026,242,22.14,21.53,0.3524092,0,48.48,55.89,32.92,34.72
"2017-08-12 02:40:00",300893,0.101,316.8,18.99,100,0,0,861.5499,0,5.912,3.018,242,22.04,21.53,0.6442042,0,48.54,55.89,32.93,34.72
"2017-08-12 02:50:00",300894,0.006,0.226,19.03,100,0,0,861.6742,0,8.87,2.989,474,22.04,21.52,0.6744998,0,48.54,55.83,32.93,34.71
"2017-08-12 03:00:00",300895,0,0,19.05,100,0,0,861.7311,0,6.383,3.013,305,22.05,21.53,0.4774567,0,48.54,55.83,32.93,34.71
"2017-08-12 03:10:00",300896,0.142,128,19,100,0,0,861.6068,0,6.012,3.017,385,22.06,21.53,0.3713657,0,48.54,55.83,32.93,34.71
"2017-08-12 03:20:00",300897,0.252,114.7,18.95,100,0,0,861.5205,0,9.43,2.984,499,22.05,21.54,0.2804214,0,48.48,55.83,32.92,34.71
"2017-08-12 03:30:00",300898,0.048,91.2,18.97,100,0,0,861.5037,0,10.46,2.974,368,21.99,21.54,0.3334754,0,48.54,55.83,32.93,34.71
"2017-08-12 03:40:00",300899,0.041,63.78,18.96,100,0,0,861.5037,0,9.63,2.982,278,22.04,21.54,0.485055,0,48.54,55.83,32.93,34.71
"2017-08-12 03:50:00",300900,0,0,18.96,100,0,0,861.4825,0,9.43,2.984,244,22.02,21.54,0.4964158,0,48.48,55.83,32.92,34.71
"2017-08-12 04:00:00",300901,0.017,104.6,18.93,100,0,0,861.4342,0,9.87,2.98,252,21.96,21.54,0.4168271,0,48.48,55.83,32.92,34.71
"2017-08-12 04:10:00",300902,0.003,113.6,18.93,100,0,0,861.251,0,9.74,2.981,245,21.96,21.54,0.4774497,0,48.48,55.83,32.92,34.71
"2017-08-12 04:20:00",300903,0,0,18.99,100,0,0,861.2862,0,9.69,2.981,241,21.96,21.56,0.5987152,0,48.48,55.83,32.92,34.71
"2017-08-12 04:30:00",300904,0.084,302.6,19.08,99.7,0,0,861.4979,0,9.38,2.984,242,21.96,21.57,0.7502943,0,48.48,55.83,32.92,34.71
"2017-08-12 04:40:00",300905,0.082,288.9,19,100,0,0,861.6033,0,9.53,2.983,242,21.98,21.58,0.6783015,0,48.48,55.83,32.92,34.71
"2017-08-12 04:50:00",300906,0,0,19.02,100,0,0,861.7127,0,9.43,2.984,242,21.99,21.58,0.5911362,0,48.48,55.83,32.92,34.71
"2017-08-12 05:00:00",300907,0.099,119.4,18.89,100,0,0,861.7118,0,9.48,2.984,241,21.99,21.58,0.3940865,0,48.48,55.83,32.92,34.71
"2017-08-12 05:10:00",300908,0,0,18.94,100,0.5698646,0,861.7335,0,9.41,2.984,235,21.91,21.59,0.5305097,0.644,48.54,55.83,32.93,34.71
"2017-08-12 05:20:00",300909,0,0,18.96,100,2.593888,0,861.7564,0,9.69,2.981,240,21.88,21.6,0.9928219,0.394,48.48,55.77,32.92,34.7
"2017-08-12 05:30:00",300910,0,0,19.04,100,6.63802,0,861.7563,0,9.94,2.979,254,21.88,21.61,1.716603,0.264,48.48,55.77,32.92,34.7
"2017-08-12 05:40:00",300911,0.211,340.6,19.03,100,4.814368,0,861.8068,0,7.524,3.002,339,21.88,21.59,1.580164,0.329,48.48,55.77,32.92,34.7
"2017-08-12 05:50:00",300912,0,0,18.99,100,10.0648,0.5,862.009,0,9.34,2.984,321,21.87,21.55,1.871912,0.19,48.48,55.77,32.92,34.7
"2017-08-12 06:00:00",300913,0,0,19.09,100,16.25477,0,862.068,0,9.34,2.984,267,21.91,21.54,2.89884,0.185,48.48,55.77,32.92,34.7
"2017-08-12 06:10:00",300914,0,0,19.12,100,45.13334,0,862.1711,0,9.34,2.984,241,21.93,21.54,6.642766,0.148,48.48,55.77,32.92,34.7
"2017-08-12 06:20:00",300915,0,0,19.13,100,77.01812,0,862.1332,0,9.63,2.981,241,21.89,21.53,10.73147,0.139,48.48,55.77,32.92,34.7
"2017-08-12 06:30:00",300916,0.07,135.8,19.4,100,79.11266,0,862.2406,0,9.23,2.983,242,21.88,21.54,11.21648,0.142,48.48,55.77,32.92,34.7
"2017-08-12 06:40:00",300917,0.215,137.5,19.42,100,102.1642,0,862.2617,0,9.68,2.978,248,21.86,21.55,14.46039,0.141,48.48,55.77,32.92,34.7
"2017-08-12 06:50:00",300918,0.03,220.1,19.93,98.3,171.923,0,862.2617,0,9.54,2.977,241,21.83,21.55,24.32025,0.142,48.48,55.77,32.92,34.7
"2017-08-12 07:00:00",300919,0.132,117.2,19.95,94.6,86.75127,0,862.2617,0,9.62,2.978,243,21.8,21.51,11.96657,0.137,48.48,55.77,32.92,34.7
"2017-08-12 07:10:00",300920,0.188,37.12,19.61,98.2,31.83667,0,862.2638,0,9.57,2.98,241,21.78,21.5,3.82334,0.112,48.48,55.77,32.92,34.7
"2017-08-12 07:20:00",300921,0.2,294.9,19.24,100,4.853494,0.5,862.4575,0,10.17,2.976,226,21.78,21.49,0.3827108,0.048,48.48,55.77,32.92,34.7
"2017-08-12 07:30:00",300922,0.05,108.6,19.12,100,18.19939,0.5,862.5143,0,9.53,2.982,233,21.77,21.45,2.16362,0.119,48.48,55.77,32.92,34.7
"2017-08-12 07:40:00",300923,0.152,90.2,19.07,100,18.96948,0,862.5143,0,9.62,2.982,243,21.77,21.42,2.337901,0.124,48.48,55.77,32.92,34.7
"2017-08-12 07:50:00",300924,0.155,62.3,19.1,100,53.15142,0,862.6617,0,9.59,2.981,248,21.77,21.42,7.047795,0.133,48.48,55.77,32.92,34.7
"2017-08-12 08:00:00",300925,0,0,19.3,100,103.9434,0,862.7101,0,9.37,2.982,358,21.78,21.43,13.33807,0.128,48.48,55.77,32.92,34.7
"2017-08-12 08:10:00",300926,0.1,85.3,19.49,100,137.4607,0,862.628,0,10.57,2.97,341,21.77,21.43,16.86948,0.122,48.48,55.72,32.92,34.68
"2017-08-12 08:20:00",300927,0.513,120.6,19.34,100,66.27575,0,862.7648,0,-30.08,3.365,220,21.77,21.42,7.63116,0.115,48.48,55.72,32.92,34.68
"2017-08-12 08:30:00",300928,0.219,173.8,19.12,100,61.50395,3,862.7669,0,4.698,3.029,252,21.76,21.41,7.240763,0.117,48.54,55.72,32.93,34.68
"2017-08-12 08:40:00",300929,0.124,40.73,19.02,100,97.99941,5.5,862.7627,0,9.85,2.979,261,21.74,21.41,11.99597,0.122,51.99,55.89,33.79,34.72
"2017-08-12 08:50:00",300930,0.206,51.7,18.93,100,125.2098,0.5,862.7648,0,10.13,2.978,223,21.71,21.42,14.95151,0.12,53.28,56.18,34.1,34.79
"2017-08-12 09:00:00",300931,0.096,343.4,18.92,100,59.19125,0,862.7669,0,10.53,2.973,224,21.74,21.42,7.350881,0.124,52.88,56.41,34,34.84
"2017-08-12 09:10:00",300932,0.268,135.1,19.02,100,75.53353,3,862.7669,0,-30.4,3.369,220,21.72,21.43,8.961491,0.119,53.56,56.75,34.17,34.93
"2017-08-12 09:20:00",300933,0.348,100.5,18.76,100,106.2155,1,862.7627,0,11.18,2.968,209,21.69,21.44,11.81108,0.111,54.01,57.51,34.27,35.1
"2017-08-12 09:30:00",300934,0.253,282.6,18.87,100,36.99383,0,862.7838,0,8.4,2.994,281,21.7,21.45,4.816258,0.131,53.56,58.56,34.17,35.35
"2017-08-12 09:40:00",300935,0.124,268.6,19.05,100,129.995,0,862.9965,0,9.06,2.986,245,21.67,21.44,16.5632,0.129,53.22,58.73,34.08,35.39
"2017-08-12 09:50:00",300936,0.039,0.395,19.4,100,142.1908,0,863.0196,0,9.57,2.98,237,21.62,21.44,17.42347,0.123,53.11,58.85,34.06,35.41
"2017-08-12 10:00:00",300937,0.261,342.9,19.37,100,92.89175,0,863.0175,0,9.14,2.985,366,21.62,21.44,11.53102,0.122,53.05,59.03,34.04,35.45
"2017-08-12 10:10:00",300938,0.335,229.9,19.28,100,203.6095,0,863.0217,0,3.881,3.035,260,21.64,21.43,26.86592,0.131,53,59.03,34.03,35.45
"2017-08-12 10:20:00",300939,0.213,14.37,19.57,100,212.2455,0,863.0196,0,8.28,2.992,394,21.62,21.43,26.05098,0.121,52.94,59.08,34.02,35.47
"2017-08-12 10:30:00",300940,0.706,280,19.33,100,280.5915,0,863.0196,0,10.55,2.971,411,21.63,21.43,37.50635,0.134,52.88,59.08,34,35.47
"2017-08-12 10:40:00",300941,0.62,272.4,19.46,100,242.3678,0,863.0196,0,9.63,2.979,244,21.58,21.43,31.67028,0.131,52.83,59.08,33.99,35.47
"2017-08-12 10:50:00",300942,0.052,208,19.51,100,123.5837,0,863.007,0,-32.18,3.383,201,21.59,21.43,16.54732,0.132,52.6,59.08,33.94,35.47
"2017-08-12 11:00:00",300943,0.482,266.6,19.47,99.5,255.7386,0,862.9459,0,9.31,2.983,240,21.56,21.42,33.4996,0.131,51.6,59.08,33.69,35.47
"2017-08-12 11:10:00",300944,0.641,270.7,19.47,97.6,365.9853,0,862.868,0,-33.37,3.394,330,21.55,21.42,50.06871,0.137,51.49,59.08,33.66,35.47
"2017-08-12 11:20:00",300945,0.446,289.8,20.28,91.4,798.8406,0,862.7985,0,4.909,3.018,377,21.58,21.41,106.645,0.131,51.33,59.03,33.62,35.45
"2017-08-12 11:30:00",300946,0.282,237.6,20.56,90.8,381.8871,0,862.7669,0,9.33,2.977,246,21.63,21.4,51.87638,0.136,51.21,59.03,33.6,35.45
"2017-08-12 11:40:00",300947,0.505,277,20.24,91.7,500.6196,0,862.7564,0,-33.37,3.389,264,21.63,21.38,72.78459,0.143,51.16,58.97,33.58,35.44
"2017-08-12 11:50:00",300948,0.34,276.1,20.84,87.7,655.5626,0,862.6722,0,-30.8,3.362,191,21.56,21.36,91.084,0.137,51.1,58.97,33.57,35.44
"2017-08-12 12:00:00",300949,0.185,270.6,20.65,89.9,242.4815,0,862.607,0,8.95,2.982,229,21.54,21.36,31.24206,0.126,51.1,58.91,33.57,35.43
"2017-08-12 12:10:00",300950,0.156,290.3,20.03,92.8,225.4435,0,862.6406,0,8.96,2.983,250,21.53,21.36,31.24557,0.137,50.99,58.91,33.54,35.43
"2017-08-12 12:20:00",300951,0.132,246.7,20.32,92.4,628.9366,0,862.5585,0,2.281,3.042,305,21.61,21.36,94.26787,0.147,50.94,58.85,33.53,35.41
"2017-08-12 12:30:00",300952,0.408,251.7,21.6,84.7,1085.803,0,862.5143,0,5.071,3.01,316,21.62,21.34,162.4279,0.147,50.99,58.85,33.54,35.41
"2017-08-12 12:40:00",300953,0.437,254.6,22.24,80.2,1221.932,0,862.4512,0,-31.78,3.363,222,21.7,21.28,186.0216,0.149,50.94,58.79,33.53,35.4
"2017-08-12 12:50:00",300954,0.417,254.8,21.7,80.9,750.54,0,862.2828,0,5.004,3.012,238,21.71,21.28,112.133,0.143,50.88,58.79,33.52,35.4
"2017-08-12 13:00:00",300955,0.309,252.1,22.23,79.47,657.4089,0,862.2617,0,4.923,3.013,278,21.73,21.29,95.01721,0.138,50.88,58.79,33.52,35.4
"2017-08-12 13:10:00",300956,0.197,274.9,21.9,81.3,858.2787,0,862.2617,0,-1.168,3.068,210,21.75,21.27,132.5699,0.151,50.77,58.79,33.49,35.4
"2017-08-12 13:20:00",300957,0.555,252.4,22.5,76.4,1035.949,0,862.2553,0,3.468,3.023,234,21.75,21.25,161.3833,0.155,50.77,58.73,33.49,35.39
"2017-08-12 13:30:00",300958,0.53,272.8,22.59,75.25,917.8255,0,862.0785,0,8.51,2.975,266,21.84,21.21,144.5786,0.152,50.77,58.67,33.49,35.37
"2017-08-12 13:40:00",300959,0.461,261.8,22.65,74.97,928.9012,0,862.009,0,-34.87,3.391,297,21.91,21.2,147.6964,0.157,50.66,58.67,33.46,35.37
"2017-08-12 13:50:00",300960,0.28,268.8,22.97,75.29,686.3162,0,861.9943,0,6.427,2.995,244,21.94,21.19,100.6917,0.136,50.66,58.61,33.46,35.36
"2017-08-12 14:00:00",300961,0.311,249.2,22.46,77.31,680.0928,0,861.9627,0,-31.13,3.354,247,22,21.22,100.1803,0.145,50.66,58.61,33.46,35.36
"2017-08-12 14:10:00",300962,0.466,311.3,23,74.98,920.7369,0,861.8553,0,2.936,3.025,312,22.05,21.21,128.4634,0.138,50.61,58.56,33.45,35.35
"2017-08-12 14:20:00",300963,0.417,264.4,22.97,74.73,949.8542,0,861.7836,0,-30.18,3.343,350,22.11,21.19,126.0389,0.132,50.61,58.5,33.45,35.33
"2017-08-12 14:30:00",300964,0.292,277,23.08,74.3,713.7481,0,861.7563,0,3.537,3.021,230,22.15,21.19,87.01236,0.12,50.61,58.44,33.45,35.32
"2017-08-12 14:40:00",300965,0.447,298,22.78,75.27,787.6241,0,861.7563,0,1.259,3.044,224,22.25,21.18,84.56515,0.107,50.55,58.44,33.43,35.32
"2017-08-12 14:50:00",300966,0.32,272.2,22.19,76.84,571.2256,0,861.7563,0,11.33,2.95,338,22.3,21.19,45.6598,0.082,50.5,58.44,33.42,35.32
"2017-08-12 15:00:00",300967,0.084,265.2,22.49,77.05,709.2613,0,861.7563,0,-0.268,3.058,211,22.38,21.2,34.33293,0.051,50.55,58.38,33.43,35.31
"2017-08-12 15:10:00",300968,0.437,288.8,22.47,77.56,270.0287,0,861.8279,0,8.7,2.974,248,22.43,21.19,35.77625,0.136,50.44,58.38,33.41,35.31
"2017-08-12 15:20:00",300969,0.505,294.5,21.92,79.2,234.7766,0,862.0027,0,9.26,2.973,334,22.54,21.2,34.18175,0.144,50.44,58.38,33.41,35.31
"2017-08-12 15:30:00",300970,0.448,270.6,21.26,82.2,142.7923,0,862.009,0,9.96,2.968,353,22.6,21.22,17.7748,0.123,50.44,58.5,33.41,35.33
"2017-08-12 15:40:00",300971,0.377,257.1,21.11,83.2,123.4998,0,862.0132,0,5.678,3.009,242,22.67,21.23,17.36986,0.136,50.44,58.32,33.41,35.29
"2017-08-12 15:50:00",300972,0.258,257.3,21.11,83.8,98.65044,0,862.1901,0,5.315,3.012,304,22.73,21.26,13.74464,0.135,50.39,58.26,33.39,35.28
"2017-08-12 16:00:00",300973,0.178,272.8,21.08,83.5,150.401,0,862.2617,0,-31.73,3.369,206,22.79,21.29,21.1749,0.136,50.39,58.26,33.39,35.28
"2017-08-12 16:10:00",300974,0.34,307.5,21.14,83.4,141.8121,0,862.2617,0,8.13,2.985,361,22.89,21.36,19.7169,0.138,50.33,58.26,33.38,35.28
"2017-08-12 16:20:00",300975,0.358,274.1,21.39,83.1,206.2124,0,862.2596,0,3.088,3.032,263,22.88,21.4,31.32629,0.152,50.33,58.21,33.38,35.26
"2017-08-12 16:30:00",300976,0.257,292.8,21.15,84.1,142.5934,0,862.2617,0,1.453,3.05,236,22.89,21.4,20.33872,0.142,50.33,58.21,33.38,35.26
"2017-08-12 16:40:00",300977,0.119,269.9,21.02,85.5,125.1841,0,862.2617,0,-31.24,3.366,208,23.01,21.4,17.69391,0.141,50.33,58.21,33.38,35.26
"2017-08-12 16:50:00",300978,0.202,279.8,20.82,86.3,133.1812,0,862.2617,0,3.932,3.027,259,22.99,21.4,19.74375,0.147,50.28,58.15,33.37,35.25
"2017-08-12 17:00:00",300979,0.622,43.12,20.71,85.6,66.1273,0,862.2617,0,-34.07,3.396,209,22.97,21.4,8.377217,0.126,50.28,58.15,33.37,35.25
"2017-08-12 17:10:00",300980,0.404,7.199,20.4,87.2,51.12783,0,862.2617,0,3.072,3.038,262,22.97,21.4,5.925795,0.109,50.28,58.15,33.37,35.25
"2017-08-12 17:20:00",300981,0.241,359.3,20.33,88,34.13224,0,862.2617,0,8.63,2.985,398,22.99,21.4,3.349345,0.096,50.22,58.09,33.35,35.24
"2017-08-12 17:30:00",300982,0.172,345.1,20.14,88.4,22.8035,0,862.3669,0,8.7,2.985,249,23.06,21.4,2.095254,0.091,50.22,58.09,33.35,35.24
"2017-08-12 17:40:00",300983,0.534,290,19.95,90.5,29.03623,0,862.5164,0,8.83,2.986,268,23.13,21.41,3.580544,0.119,50.22,58.09,33.35,35.24
"2017-08-12 17:50:00",300984,0.56,293.4,19.57,91.2,26.22656,0,862.6154,0,4.568,3.028,263,23.15,21.41,3.489616,0.133,50.22,58.09,33.35,35.24
"2017-08-12 18:00:00",300985,0.361,295.4,19.3,94.9,22.73773,0,862.7669,0,8.81,2.989,250,23.16,21.42,3.448045,0.149,50.22,58.09,33.35,35.24
"2017-08-12 18:10:00",300986,0.5,301.1,19,96.7,62.83737,0,862.8007,0,9.18,2.987,241,23.16,21.45,11.49982,0.18,50.17,58.03,33.34,35.22
"2017-08-12 18:20:00",300987,0.503,279.5,18.79,98.5,58.65607,0,862.8638,0,9.31,2.985,228,23.15,21.46,10.93904,0.187,50.17,58.03,33.34,35.22
"2017-08-12 18:30:00",300988,0.379,172.1,19.03,99.2,30.3112,0,862.8743,0,9.11,2.986,242,23.13,21.51,5.626898,0.185,50.11,58.03,33.33,35.22
"2017-08-12 18:40:00",300989,0.331,254.6,18.9,97.3,10.42228,0,862.9943,0,8.39,2.995,354,23.08,21.52,1.773365,0.171,50.11,58.03,33.33,35.22
"2017-08-12 18:50:00",300990,0.299,302.4,18.66,97.3,1.968937,0,863.0196,0,-31.31,3.38,227,23.05,21.52,0.2614602,0.051,50.11,58.03,33.33,35.22
"2017-08-12 19:00:00",300991,0.125,254.9,18.59,98.5,0,0,863.0196,0,8.11,2.999,242,23.07,21.53,0,0,50.17,58.03,33.34,35.22
"2017-08-12 19:10:00",300992,0.196,215.8,18.46,99.7,0,0,863.1396,0,-32.92,3.396,250,23.09,21.54,0,0,50.11,58.03,33.33,35.22
"2017-08-12 19:20:00",300993,0.407,191.3,18.3,100,0,0,863.2681,0,-33.64,3.405,248,23.1,21.63,0,0,50.11,58.03,33.33,35.22
"2017-08-12 19:30:00",300994,0.108,250,18.17,100,0,0,863.3186,0,6.168,3.02,385,23.1,21.69,0.02273702,0,50.11,57.97,33.33,35.21
"2017-08-12 19:40:00",300995,0.093,342.2,17.95,100,0,0,863.525,0,1.401,3.068,281,23.09,21.68,0.003789438,0,50.06,57.97,33.31,35.21
"2017-08-12 19:50:00",300996,0.133,0.941,17.5,100,0,0,863.645,0,-32.45,3.398,238,23.03,21.67,0,0,50.11,57.97,33.33,35.21
"2017-08-12 20:00:00",300997,0.088,349.9,17.29,100,0,0,863.7776,0,-40.02,3.472,296,23.05,21.68,0,0,50.06,57.97,33.31,35.21
"2017-08-12 20:10:00",300998,0.148,14.19,17.14,100,0,0,863.7776,0,-1.774,3.102,215,23.02,21.66,0,0,50.11,57.91,33.33,35.2
"2017-08-12 20:20:00",300999,0.226,246.4,17.15,100,0,0,863.7791,0,-3.012,3.114,202,23.02,21.64,0.1212642,0,50.06,57.97,33.31,35.21
"2017-08-12 20:30:00",301000,0.146,310.2,17.07,100,0,0,863.8879,0,-2.552,3.11,209,23.02,21.63,0.06063241,0,50.06,57.91,33.31,35.2
"2017-08-12 20:40:00",301001,0.039,307.3,17.06,100,0,0,864.0429,0,-2.037,3.105,217,23.07,21.63,0.2273722,0,50.06,57.91,33.31,35.2
"2017-08-12 20:50:00",301002,0.182,321.4,16.88,100,0,0,864.0759,0,-1.798,3.105,230,23.03,21.66,0.01515816,0,50.06,57.91,33.31,35.2
"2017-08-12 21:00:00",301003,0.206,287.3,16.69,100,0,0,864.1537,0,-1.37,3.099,218,22.93,21.7,0.09094898,0,50.06,57.91,33.31,35.2
"2017-08-12 21:10:00",301004,0.129,323.8,16.93,100,0,0,864.1176,0,-0.902,3.094,259,22.93,21.71,0.4509554,0,50.06,57.91,33.31,35.2
"2017-08-12 21:20:00",301005,0.08,170.7,16.99,100,0,0,864.0335,0,-1.26,3.097,246,22.97,21.71,0.4320077,0,50.01,57.86,33.3,35.18
"2017-08-12 21:30:00",301006,0.018,298.2,17.1,100,0,0,864.0356,0,-1.569,3.1,236,22.95,21.71,0.4699031,0,50.01,57.86,33.3,35.18
"2017-08-12 21:40:00",301007,0.165,346.2,16.83,100,0,0,864.0989,0,-1.124,3.098,246,22.87,21.69,0.1250549,0,50.01,57.86,33.3,35.18
"2017-08-12 21:50:00",301008,0.006,48.19,16.72,100,0,0,864.1882,0,-0.918,3.096,240,22.85,21.7,0.04926403,0,50.01,57.86,33.3,35.18
"2017-08-12 22:00:00",301009,0.049,7.11,16.54,100,0,0,864.303,0,-0.72,3.095,253,22.86,21.75,0.03789541,0,50.06,57.86,33.31,35.18
"2017-08-12 22:10:00",301010,0.069,30.28,16.49,100,0,0,864.3034,0,-0.569,3.094,250,22.88,21.75,0.2046352,0,50.01,57.8,33.3,35.17
"2017-08-12 22:20:00",301011,0.084,27.2,16.41,100,0,0,864.3011,0,-37.58,3.454,254,22.8,21.73,0.189477,0,50.01,57.8,33.3,35.17
"2017-08-12 22:30:00",301012,0.014,63.54,16.42,100,0,0,864.1154,0,-37.43,3.452,272,22.76,21.73,0.3069528,0,50.01,57.8,33.3,35.17
"2017-08-12 22:40:00",301013,0.019,312.6,16.42,100,0,0,864.1286,0,-37.43,3.452,270,22.75,21.72,0.4168495,0,50.01,57.8,33.3,35.17
"2017-08-12 22:50:00",301014,0.248,19.56,16.45,100,0,0,864.1156,0,-33.52,3.414,287,22.75,21.72,0.3903227,0,50.01,57.8,33.3,35.17
"2017-08-12 23:00:00",301015,0.206,22.37,16.4,100,0,0,864.0519,0,9.01,3.001,283,22.74,21.72,0.3600064,0,50.01,57.8,33.3,35.17
"2017-08-12 23:10:00",301016,0.045,32.95,16.43,100,0,0,864.1393,0,9.21,2.999,264,22.67,21.74,0.4357972,0,50.01,57.74,33.3,35.16
"2017-08-12 23:20:00",301017,0.132,68.31,16.49,100,0,0,864.1923,0,9.48,2.996,260,22.68,21.77,0.4547449,0,50.01,57.74,33.3,35.16
"2017-08-12 23:30:00",301018,0.228,33.36,16.44,100,0,0,864.0881,0,9.31,2.999,242,22.7,21.78,0.2690574,0,50.01,57.8,33.3,35.17
"2017-08-12 23:40:00",301019,0.271,18.27,16.18,100,0,0,864.0599,0,9.33,2.999,240,22.67,21.79,0.1364235,0,49.95,57.74,33.28,35.16
"2017-08-12 23:50:00",301020,0.06,345.8,16.17,100,0,0,864.0524,0,9.27,3,228,22.6,21.8,0.272847,0,49.95,57.8,33.28,35.17
